Skip Page Navigation
NASA JPL Caltech
NASA Logo - Jet Propulsion Laboratory + View the NASA Portal
+ Center for Near-Earth Object Studies
JPL Home Earth Solar System Stars & Galaxies Technology
JPL Solar System Dynamics
BODIES ORBITS EPHEMERIDES TOOLS PHYSICAL DATA DISCOVERY FAQ SITE MAP
IMPORTANT: The SSD Announcement email list is now available. Major changes are coming in the near future, including possible hostname and/or URL changes. To be notified of such changes, subscribe to this email list.

Please visit this page for more details.


JPL Small-Body Database Browser
Search: [ help ]  
160481 (2006 XH32)
Classification: Main-belt Asteroid          SPK-ID: 2160481
Ephemeris | Orbit Diagram | Orbital Elements | Mission Design | Physical Parameters | Discovery Circumstances | Close-Approach Data ]

[ show orbit diagram ]
Orbital Elements at Epoch 2458600.5 (2019-Apr-27.0) TDB
Reference: JPL 12 (heliocentric ecliptic J2000)
 Element Value Uncertainty (1-sigma)   Units 
e .04265996794328421 7.1455e-08  
a 3.166096035067665 3.6617e-08 au
q 3.031030479706319 2.4081e-07 au
i 3.976850331017749 6.1693e-06 deg
node 63.25061352654784 9.2158e-05 deg
peri 152.8626792186003 0.00012027 deg
M 302.6916635959163 7.8192e-05 deg
tp 2458928.066781440559
(2020-Mar-19.56678144)
0.00044664 TDB
period 2057.711822013356
5.63
3.5697e-05
9.773e-08
d
yr
n .1749516118577577 3.035e-09 deg/d
Q 3.301161590429011 3.8179e-08 au
  Orbit Determination Parameters
   # obs. used (total)      331  
   data-arc span      21334 days (58.41 yr)  
   first obs. used      1960-09-29  
   last obs. used      2019-02-26  
   planetary ephem.      DE431  
   SB-pert. ephem.      SB431-N16  
   condition code      0  
   norm. resid. RMS      .54349  
   source      ORB  
   producer      Otto Matic  
   solution date      2019-Jul-14 08:42:32  

Additional Information
 Earth MOID = 2.02406 au 
 Jupiter MOID = 1.66446 au 
 T_jup = 3.198 
[ show covariance matrix ]

Ephemeris | Orbit Diagram | Orbital Elements | Mission Design | Physical Parameters | Discovery Circumstances | Close-Approach Data ]

Physical Parameter Table
Parameter Symbol Value Units Sigma Reference Notes
absolute magnitude H 15.3   n/a MPO436809  

160481 (2006 XH32)          Discovered 2006-Dec-09 by Spacewatch at Kitt Peak
Reference: 20070730/Numbers.arcLast Updated: 2007-08-06

[ show close-approach data ]
Alternate Designations
 2006 XH32 = 2005 TA176 
Ephemeris | Orbit Diagram | Orbital Elements | Mission Design | Physical Parameters | Discovery Circumstances | Close-Approach Data ]
ABOUT SSD CREDITS/AWARDS PRIVACY/COPYRIGHT GLOSSARY LINKS
FirstGov
(server date/time)  
NASA Home Page
Site Manager:   Ryan S. Park
Webmaster  Alan B. Chamberlin